EJU653N LFMN-LFRN

Flight info

Callsign EJU653N
Flight time 1h 23m
Altitude 34000
Route BODRU DCT KOTIT DCT ETREK DCT NOQAS DCT LERGA DCT FOUCO DCT MANAK UY110 TIRAV UT501 USODA/N0327F180 T501 ENOKI
Aircraft A320/M-SDE2E3FGHIJ1RWXYZ/LB1

Departure

Time 2026-05-05 05:11
Airport Nice-Côte d'Azur Airport (LFMN)

Arrival

Time 2026-05-05 06:35
Airport Rennes-Saint-Jacques Airport (LFRN)
Time Latitude Longitude Altitude Speed Heading
2026-05-05 04:52 43.66171 7.20674 23 ft 0 kts 261°
2026-05-05 04:59 43.66172 7.20681 22 ft 4 kts 261°
2026-05-05 05:00 43.66176 7.20718 22 ft 4 kts 261°
2026-05-05 05:00 43.66179 7.20747 21 ft 4 kts 244°
2026-05-05 05:00 43.66196 7.20771 25 ft 4 kts 188°
2026-05-05 05:00 43.66219 7.20769 23 ft 2 kts 171°
2026-05-05 05:01 43.66220 7.20769 22 ft 0 kts 171°
2026-05-05 05:04 43.66216 7.20770 23 ft 2 kts 171°
2026-05-05 05:04 43.66192 7.20775 25 ft 5 kts 171°
2026-05-05 05:04 43.66149 7.20785 21 ft 8 kts 171°
2026-05-05 05:04 43.66088 7.20798 21 ft 10 kts 171°
2026-05-05 05:05 43.66011 7.20816 21 ft 12 kts 171°
2026-05-05 05:05 43.65934 7.20833 21 ft 11 kts 171°
2026-05-05 05:05 43.65863 7.20850 21 ft 10 kts 171°
2026-05-05 05:05 43.65791 7.20865 21 ft 11 kts 171°
2026-05-05 05:06 43.65723 7.20828 22 ft 12 kts 224°
2026-05-05 05:06 43.65660 7.20743 21 ft 13 kts 225°
2026-05-05 05:06 43.65591 7.20647 21 ft 15 kts 225°
2026-05-05 05:06 43.65511 7.20538 21 ft 17 kts 224°
2026-05-05 05:07 43.65420 7.20413 21 ft 20 kts 224°
2026-05-05 05:07 43.65340 7.20305 21 ft 13 kts 216°
2026-05-05 05:07 43.65258 7.20318 21 ft 12 kts 138°
2026-05-05 05:07 43.65194 7.20406 22 ft 14 kts 135°
2026-05-05 05:08 43.65114 7.20475 23 ft 14 kts 174°
2026-05-05 05:08 43.65032 7.20417 21 ft 13 kts 225°
2026-05-05 05:08 43.64967 7.20328 21 ft 13 kts 225°
2026-05-05 05:08 43.64908 7.20247 21 ft 11 kts 225°
2026-05-05 05:09 43.64855 7.20175 21 ft 10 kts 225°
2026-05-05 05:09 43.64803 7.20131 21 ft 8 kts 186°
2026-05-05 05:09 43.64756 7.20156 21 ft 6 kts 142°
2026-05-05 05:09 43.64730 7.20192 22 ft 4 kts 133°
2026-05-05 05:10 43.64717 7.20211 23 ft 1 kts 133°
2026-05-05 05:10 43.64709 7.20222 23 ft 3 kts 133°
2026-05-05 05:10 43.64692 7.20256 23 ft 6 kts 103°
2026-05-05 05:10 43.64721 7.20315 23 ft 8 kts 44°
2026-05-05 05:11 43.64819 7.20448 24 ft 48 kts 44°
2026-05-05 05:11 43.65236 7.21023 22 ft 117 kts 45°
2026-05-05 05:11 43.65944 7.21997 55 ft 165 kts 45°
2026-05-05 05:11 43.66729 7.23108 760 ft 160 kts 53°
2026-05-05 05:12 43.67092 7.24551 1394 ft 164 kts 91°
2026-05-05 05:12 43.66723 7.26019 2022 ft 166 kts 128°
2026-05-05 05:12 43.65879 7.27079 2767 ft 163 kts 139°
2026-05-05 05:12 43.65001 7.28070 3447 ft 162 kts 139°
2026-05-05 05:13 43.64423 7.28725 3875 ft 162 kts 139°
2026-05-05 05:13 43.63504 7.29691 4416 ft 172 kts 152°
2026-05-05 05:13 43.62252 7.29915 4675 ft 199 kts 194°
2026-05-05 05:13 43.61105 7.28748 4939 ft 226 kts 237°
2026-05-05 05:14 43.60801 7.26595 5608 ft 238 kts 279°
2026-05-05 05:14 43.61520 7.24554 6491 ft 241 kts 308°
2026-05-05 05:14 43.62645 7.22826 7321 ft 243 kts 310°
2026-05-05 05:14 43.63791 7.21089 8152 ft 246 kts 309°
2026-05-05 05:15 43.64945 7.19336 8975 ft 248 kts 309°
2026-05-05 05:15 43.66111 7.17564 9807 ft 251 kts 308°
2026-05-05 05:15 43.67290 7.15772 10570 ft 253 kts 308°
2026-05-05 05:15 43.68480 7.13962 11353 ft 255 kts 308°
2026-05-05 05:16 43.69675 7.12136 12162 ft 257 kts 308°
2026-05-05 05:16 43.70879 7.10301 12960 ft 261 kts 308°
2026-05-05 05:16 43.72167 7.08335 13267 ft 284 kts 309°
2026-05-05 05:16 43.73544 7.06227 13528 ft 307 kts 309°
2026-05-05 05:17 43.75033 7.03950 13744 ft 331 kts 309°
2026-05-05 05:17 43.76619 7.01535 14130 ft 345 kts 309°
2026-05-05 05:17 43.78244 6.99064 14760 ft 350 kts 309°
2026-05-05 05:17 43.79891 6.96562 15442 ft 353 kts 309°
2026-05-05 05:18 43.81557 6.94033 16140 ft 357 kts 309°
2026-05-05 05:18 43.83235 6.91482 16819 ft 360 kts 309°
2026-05-05 05:18 43.84927 6.88898 17476 ft 364 kts 309°
2026-05-05 05:18 43.86631 6.86285 18160 ft 367 kts 309°
2026-05-05 05:19 43.88352 6.83641 18739 ft 371 kts 309°
2026-05-05 05:19 43.90086 6.80975 19324 ft 374 kts 309°
2026-05-05 05:19 43.91835 6.78290 19904 ft 377 kts 309°
2026-05-05 05:19 43.93597 6.75587 20469 ft 380 kts 308°
2026-05-05 05:20 43.95402 6.72885 21028 ft 383 kts 310°
2026-05-05 05:20 43.97279 6.70237 21557 ft 387 kts 311°
2026-05-05 05:20 43.99204 6.67610 22081 ft 390 kts 312°
2026-05-05 05:20 44.01162 6.64974 22623 ft 393 kts 312°
2026-05-05 05:21 44.03133 6.62321 23169 ft 396 kts 312°
2026-05-05 05:21 44.05112 6.59637 23652 ft 399 kts 312°
2026-05-05 05:21 44.07098 6.56917 24079 ft 402 kts 311°
2026-05-05 05:21 44.09085 6.54174 24460 ft 404 kts 311°
2026-05-05 05:22 44.11082 6.51405 24886 ft 407 kts 311°
2026-05-05 05:22 44.13090 6.48612 25298 ft 409 kts 311°
2026-05-05 05:22 44.15107 6.45801 25705 ft 412 kts 311°
2026-05-05 05:22 44.17136 6.42966 26097 ft 415 kts 311°
2026-05-05 05:23 44.19178 6.40114 26517 ft 417 kts 311°
2026-05-05 05:23 44.21190 6.37194 26917 ft 418 kts 306°
2026-05-05 05:23 44.23026 6.34045 27309 ft 419 kts 304°
2026-05-05 05:23 44.24866 6.30871 27687 ft 422 kts 305°
2026-05-05 05:24 44.26717 6.27680 28065 ft 425 kts 304°
2026-05-05 05:24 44.28521 6.24561 28427 ft 427 kts 304°
2026-05-05 05:24 44.30392 6.21321 28792 ft 430 kts 304°
2026-05-05 05:24 44.32271 6.18058 29165 ft 432 kts 304°
2026-05-05 05:25 44.34157 6.14775 29542 ft 434 kts 304°
2026-05-05 05:25 44.36052 6.11475 29925 ft 437 kts 304°
2026-05-05 05:25 44.37962 6.08149 30249 ft 439 kts 304°
2026-05-05 05:25 44.39853 6.04855 30553 ft 441 kts 304°
2026-05-05 05:26 44.41805 6.01456 30860 ft 443 kts 304°
2026-05-05 05:26 44.43739 5.98090 31157 ft 445 kts 304°
2026-05-05 05:26 44.45680 5.94707 31460 ft 446 kts 304°
2026-05-05 05:26 44.47615 5.91323 31874 ft 445 kts 304°
2026-05-05 05:27 44.49546 5.87941 32286 ft 443 kts 303°
2026-05-05 05:27 44.51468 5.84570 32688 ft 442 kts 303°
2026-05-05 05:27 44.55297 5.77849 33513 ft 440 kts 303°
2026-05-05 05:28 44.57202 5.74491 33861 ft 440 kts 303°
2026-05-05 05:28 44.59096 5.71151 33927 ft 433 kts 303°
2026-05-05 05:28 44.62793 5.64640 33920 ft 423 kts 302°
2026-05-05 05:29 44.66443 5.58167 33921 ft 422 kts 302°
2026-05-05 05:29 44.70085 5.51687 33917 ft 423 kts 302°
2026-05-05 05:30 44.72340 5.47671 33911 ft 423 kts 302°
2026-05-05 05:30 44.75983 5.41177 33911 ft 423 kts 302°
2026-05-05 05:31 44.79634 5.34672 33912 ft 423 kts 302°
2026-05-05 05:31 44.83277 5.28166 33911 ft 423 kts 302°
2026-05-05 05:32 44.86916 5.21638 33914 ft 424 kts 302°
2026-05-05 05:32 44.90555 5.15096 33913 ft 424 kts 302°
2026-05-05 05:33 44.94170 5.08578 33913 ft 425 kts 302°
2026-05-05 05:33 44.97812 5.01999 33914 ft 425 kts 302°
2026-05-05 05:34 45.01458 4.95404 33925 ft 426 kts 302°
2026-05-05 05:34 45.05104 4.88797 33925 ft 426 kts 302°
2026-05-05 05:35 45.08746 4.82179 33927 ft 427 kts 302°
2026-05-05 05:35 45.12383 4.75543 33931 ft 427 kts 302°
2026-05-05 05:36 45.16013 4.68891 33930 ft 426 kts 300°
2026-05-05 05:36 45.18625 4.61562 33929 ft 412 kts 281°
2026-05-05 05:37 45.19591 4.53675 33922 ft 405 kts 271°
2026-05-05 05:37 45.20236 4.45740 33919 ft 405 kts 271°
2026-05-05 05:38 45.20884 4.37795 33915 ft 406 kts 271°
2026-05-05 05:38 45.21520 4.29839 33919 ft 406 kts 271°
2026-05-05 05:39 45.22135 4.21992 33918 ft 407 kts 271°
2026-05-05 05:39 45.22766 4.14007 33913 ft 407 kts 271°
2026-05-05 05:40 45.23387 4.06015 33912 ft 408 kts 271°
2026-05-05 05:40 45.24001 3.98007 33920 ft 409 kts 271°
2026-05-05 05:41 45.24610 3.89985 33914 ft 409 kts 271°
2026-05-05 05:41 45.25215 3.81934 33921 ft 412 kts 271°
2026-05-05 05:42 45.25922 3.73855 33890 ft 416 kts 278°
2026-05-05 05:42 45.27273 3.65823 33888 ft 419 kts 278°
2026-05-05 05:43 45.28616 3.57765 33884 ft 420 kts 278°
2026-05-05 05:43 45.29954 3.49671 33886 ft 421 kts 278°
2026-05-05 05:44 45.31289 3.41559 33893 ft 422 kts 278°
2026-05-05 05:44 45.32619 3.33429 33894 ft 422 kts 278°
2026-05-05 05:45 45.33954 3.25293 33891 ft 423 kts 278°
2026-05-05 05:45 45.35286 3.17136 33898 ft 424 kts 278°
2026-05-05 05:46 45.36605 3.08968 33898 ft 424 kts 278°
2026-05-05 05:46 45.37921 3.00782 33897 ft 425 kts 278°
2026-05-05 05:47 45.39238 2.92598 33899 ft 425 kts 278°
2026-05-05 05:47 45.40550 2.84398 33903 ft 425 kts 278°
2026-05-05 05:48 45.41856 2.76184 33908 ft 425 kts 278°
2026-05-05 05:48 45.43147 2.67965 33917 ft 426 kts 278°
2026-05-05 05:49 45.44436 2.59735 33903 ft 426 kts 278°
2026-05-05 05:49 45.45727 2.51503 33913 ft 426 kts 278°
2026-05-05 05:50 45.47010 2.43262 33913 ft 427 kts 278°
2026-05-05 05:50 45.48286 2.35009 33909 ft 427 kts 278°
2026-05-05 05:51 45.49559 2.26744 33911 ft 427 kts 278°
2026-05-05 05:51 45.50820 2.18476 33908 ft 427 kts 277°
2026-05-05 05:52 45.52081 2.10207 33907 ft 427 kts 277°
2026-05-05 05:52 45.53343 2.01920 33911 ft 427 kts 277°
2026-05-05 05:53 45.54599 1.93628 33918 ft 428 kts 277°
2026-05-05 05:53 45.55635 1.86728 33918 ft 428 kts 277°
2026-05-05 05:54 45.56855 1.78540 33921 ft 428 kts 277°
2026-05-05 05:54 45.58090 1.70219 33920 ft 428 kts 277°
2026-05-05 05:55 45.59318 1.61899 33920 ft 429 kts 277°
2026-05-05 05:55 45.60535 1.53559 33924 ft 429 kts 277°
2026-05-05 05:56 45.61756 1.45217 33924 ft 429 kts 277°
2026-05-05 05:56 45.62978 1.36875 33922 ft 429 kts 277°
2026-05-05 05:57 45.64187 1.28520 33922 ft 429 kts 277°
2026-05-05 05:57 45.65386 1.20164 33924 ft 429 kts 277°
2026-05-05 05:58 45.66580 1.11794 33923 ft 429 kts 277°
2026-05-05 05:58 45.67770 1.03431 33921 ft 429 kts 277°
2026-05-05 05:59 45.68960 0.95061 33921 ft 430 kts 277°
2026-05-05 05:59 45.70136 0.86676 33922 ft 430 kts 277°
2026-05-05 06:00 45.71306 0.78295 33924 ft 430 kts 277°
2026-05-05 06:00 45.72474 0.69903 33918 ft 430 kts 277°
2026-05-05 06:01 45.73632 0.61496 33929 ft 430 kts 277°
2026-05-05 06:01 45.74775 0.53091 33933 ft 430 kts 277°
2026-05-05 06:02 45.76512 0.44863 33936 ft 437 kts 292°
2026-05-05 06:02 45.79136 0.37008 33942 ft 437 kts 292°
2026-05-05 06:03 45.81731 0.29124 33941 ft 437 kts 292°
2026-05-05 06:03 45.84319 0.21227 33940 ft 438 kts 292°
2026-05-05 06:04 45.86907 0.13318 33940 ft 438 kts 292°
2026-05-05 06:04 45.89491 0.05403 33936 ft 438 kts 292°
2026-05-05 06:05 45.92071 -0.02525 33928 ft 438 kts 292°
2026-05-05 06:05 45.94652 -0.10463 33928 ft 439 kts 292°
2026-05-05 06:06 45.97225 -0.18421 33918 ft 438 kts 292°
2026-05-05 06:06 45.99783 -0.26379 33929 ft 438 kts 292°
2026-05-05 06:07 46.02341 -0.34343 33918 ft 438 kts 292°
2026-05-05 06:07 46.04901 -0.42309 33912 ft 439 kts 292°
2026-05-05 06:08 46.07456 -0.50282 33917 ft 438 kts 292°
2026-05-05 06:08 46.09991 -0.58232 33918 ft 438 kts 292°
2026-05-05 06:09 46.12523 -0.66223 33910 ft 438 kts 292°
2026-05-05 06:09 46.15046 -0.74220 33914 ft 438 kts 292°
2026-05-05 06:10 46.17566 -0.82208 33914 ft 438 kts 292°
2026-05-05 06:10 46.20145 -0.90171 33915 ft 439 kts 297°
2026-05-05 06:11 46.23920 -0.97112 33915 ft 443 kts 317°
2026-05-05 06:11 46.28714 -1.02706 33910 ft 443 kts 320°
2026-05-05 06:12 46.33533 -1.08286 33904 ft 444 kts 320°
2026-05-05 06:12 46.38348 -1.13882 33905 ft 444 kts 320°
2026-05-05 06:13 46.43208 -1.19544 33638 ft 458 kts 320°
2026-05-05 06:13 46.45709 -1.22466 32702 ft 467 kts 320°
2026-05-05 06:13 46.48254 -1.25437 31929 ft 468 kts 321°
2026-05-05 06:14 46.50776 -1.28384 31310 ft 464 kts 321°
2026-05-05 06:14 46.53288 -1.31325 30608 ft 464 kts 321°
2026-05-05 06:14 46.55836 -1.34197 29898 ft 464 kts 327°
2026-05-05 06:14 46.58632 -1.36510 29143 ft 460 kts 337°
2026-05-05 06:15 46.61608 -1.38127 28511 ft 454 kts 347°
2026-05-05 06:15 46.64670 -1.39038 27873 ft 447 kts 356°
2026-05-05 06:15 46.67749 -1.39279 27251 ft 440 kts
2026-05-05 06:15 46.70803 -1.39347 26631 ft 437 kts
2026-05-05 06:16 46.73829 -1.39411 26019 ft 434 kts
2026-05-05 06:16 46.76834 -1.39477 25409 ft 431 kts
2026-05-05 06:16 46.79819 -1.39546 24805 ft 427 kts
2026-05-05 06:16 46.82781 -1.39620 24223 ft 424 kts
2026-05-05 06:17 46.85715 -1.39696 23642 ft 421 kts
2026-05-05 06:17 46.88633 -1.39769 23032 ft 417 kts
2026-05-05 06:17 46.91512 -1.39838 22496 ft 411 kts
2026-05-05 06:17 46.94352 -1.39904 22007 ft 405 kts
2026-05-05 06:18 46.97154 -1.39968 21517 ft 401 kts
2026-05-05 06:18 46.99930 -1.40029 21050 ft 396 kts
2026-05-05 06:18 47.02669 -1.40092 20588 ft 391 kts
2026-05-05 06:18 47.05377 -1.40156 20116 ft 387 kts
2026-05-05 06:19 47.08056 -1.40221 19646 ft 384 kts
2026-05-05 06:19 47.10714 -1.40283 19176 ft 381 kts
2026-05-05 06:19 47.13354 -1.40344 18695 ft 378 kts
2026-05-05 06:19 47.15980 -1.40404 18204 ft 377 kts
2026-05-05 06:20 47.18595 -1.40464 17665 ft 374 kts
2026-05-05 06:20 47.21187 -1.40525 17169 ft 372 kts
2026-05-05 06:20 47.23765 -1.40587 16670 ft 369 kts
2026-05-05 06:20 47.26328 -1.40651 16167 ft 367 kts
2026-05-05 06:21 47.28876 -1.40715 15667 ft 366 kts 360°
2026-05-05 06:21 47.31413 -1.40780 15163 ft 365 kts 360°
2026-05-05 06:21 47.33946 -1.40845 14653 ft 363 kts 359°
2026-05-05 06:21 47.36473 -1.40909 14149 ft 362 kts 359°
2026-05-05 06:22 47.38987 -1.40968 13625 ft 361 kts 359°
2026-05-05 06:22 47.41493 -1.41022 13069 ft 359 kts 359°
2026-05-05 06:22 47.43976 -1.41075 12630 ft 354 kts 359°
2026-05-05 06:22 47.46425 -1.41133 12119 ft 351 kts 359°
2026-05-05 06:23 47.48860 -1.41192 11594 ft 349 kts 359°
2026-05-05 06:23 47.51279 -1.41251 11056 ft 347 kts 359°
2026-05-05 06:23 47.53684 -1.41311 10543 ft 344 kts 359°
2026-05-05 06:23 47.56016 -1.41368 10390 ft 326 kts 359°
2026-05-05 06:24 47.58225 -1.41419 10265 ft 309 kts 359°
2026-05-05 06:24 47.60321 -1.41472 10138 ft 295 kts 359°
2026-05-05 06:24 47.62351 -1.41524 10004 ft 289 kts 359°
2026-05-05 06:24 47.64359 -1.41574 9940 ft 289 kts 359°
2026-05-05 06:25 47.66394 -1.41624 9362 ft 296 kts 359°
2026-05-05 06:25 47.68421 -1.41672 9121 ft 285 kts 359°
2026-05-05 06:25 47.70387 -1.41719 8685 ft 281 kts 359°
2026-05-05 06:25 47.72326 -1.41767 8204 ft 277 kts 359°
2026-05-05 06:26 47.74239 -1.41812 7616 ft 273 kts 359°
2026-05-05 06:26 47.76130 -1.41857 6990 ft 270 kts 359°
2026-05-05 06:26 47.77993 -1.41926 6374 ft 266 kts 354°
2026-05-05 06:26 47.79804 -1.42402 5716 ft 262 kts 349°
2026-05-05 06:27 47.81579 -1.42926 5162 ft 257 kts 349°
2026-05-05 06:27 47.85069 -1.43969 4456 ft 251 kts 349°
2026-05-05 06:27 47.86750 -1.44473 4174 ft 242 kts 350°
2026-05-05 06:28 47.88383 -1.44960 3915 ft 236 kts 350°
2026-05-05 06:28 47.89979 -1.45435 3652 ft 232 kts 350°
2026-05-05 06:28 47.91548 -1.45898 3406 ft 229 kts 351°
2026-05-05 06:28 47.93102 -1.46359 3147 ft 225 kts 351°
2026-05-05 06:29 47.94602 -1.46804 2881 ft 215 kts 350°
2026-05-05 06:29 47.96037 -1.47233 2632 ft 206 kts 350°
2026-05-05 06:29 47.97415 -1.47646 2377 ft 199 kts 351°
2026-05-05 06:29 47.98756 -1.48044 2123 ft 194 kts 351°
2026-05-05 06:30 48.00054 -1.48428 2003 ft 186 kts 350°
2026-05-05 06:30 48.01286 -1.48795 1997 ft 176 kts 350°
2026-05-05 06:30 48.02454 -1.49143 2009 ft 164 kts 350°
2026-05-05 06:30 48.03472 -1.49722 2007 ft 154 kts 329°
2026-05-05 06:31 48.04210 -1.50878 1996 ft 157 kts 306°
2026-05-05 06:31 48.04552 -1.52451 2001 ft 162 kts 287°
2026-05-05 06:31 48.04761 -1.54103 2004 ft 161 kts 287°
2026-05-05 06:31 48.04971 -1.55748 2000 ft 161 kts 287°
2026-05-05 06:32 48.05183 -1.57406 1992 ft 164 kts 287°
2026-05-05 06:32 48.05393 -1.59063 1858 ft 157 kts 287°
2026-05-05 06:32 48.05590 -1.60615 1699 ft 149 kts 288°
2026-05-05 06:32 48.05777 -1.62088 1514 ft 140 kts 288°
2026-05-05 06:33 48.05955 -1.63486 1317 ft 135 kts 287°
2026-05-05 06:33 48.06130 -1.64850 1129 ft 133 kts 286°
2026-05-05 06:33 48.06302 -1.66203 950 ft 131 kts 285°
2026-05-05 06:33 48.06414 -1.67085 816 ft 130 kts 285°
2026-05-05 06:34 48.06585 -1.68426 638 ft 131 kts 284°
2026-05-05 06:34 48.06754 -1.69762 452 ft 131 kts 284°
2026-05-05 06:34 48.06925 -1.71099 293 ft 131 kts 284°
2026-05-05 06:34 48.07092 -1.72432 138 ft 126 kts 285°
2026-05-05 06:35 48.07228 -1.73495 121 ft 71 kts 280°
2026-05-05 06:35 48.07283 -1.73938 108 ft 29 kts 280°
2026-05-05 06:35 48.07317 -1.74207 102 ft 26 kts 281°
2026-05-05 06:35 48.07329 -1.74419 96 ft 18 kts 252°
2026-05-05 06:36 48.07298 -1.74554 89 ft 11 kts 259°
2026-05-05 06:36 48.07351 -1.74589 90 ft 11 kts 38°
2026-05-05 06:36 48.07351 -1.74474 93 ft 12 kts 101°
2026-05-05 06:36 48.07336 -1.74347 100 ft 13 kts 101°
2026-05-05 06:37 48.07316 -1.74192 101 ft 18 kts 101°
2026-05-05 06:37 48.07291 -1.74003 107 ft 18 kts 102°
2026-05-05 06:37 48.07270 -1.73830 113 ft 16 kts 101°
2026-05-05 06:37 48.07251 -1.73679 115 ft 13 kts 103°
2026-05-05 06:38 48.07200 -1.73596 121 ft 9 kts 154°
2026-05-05 06:38 48.07138 -1.73549 121 ft 10 kts 149°
2026-05-05 06:38 48.07078 -1.73481 128 ft 10 kts 128°
2026-05-05 06:38 48.07062 -1.73387 129 ft 10 kts 101°
2026-05-05 06:39 48.07048 -1.73277 131 ft 11 kts 101°
2026-05-05 06:39 48.07032 -1.73152 133 ft 13 kts 100°
2026-05-05 06:39 48.07014 -1.73009 133 ft 15 kts 101°
2026-05-05 06:39 48.06995 -1.72861 133 ft 14 kts 100°
2026-05-05 06:40 48.06981 -1.72743 133 ft 10 kts 100°
2026-05-05 06:40 48.06965 -1.72686 133 ft 4 kts 157°
2026-05-05 06:40 48.06934 -1.72698 133 ft 5 kts 211°
2026-05-05 06:40 48.06917 -1.72721 133 ft 1 kts 224°
2026-05-05 06:41 48.06915 -1.72723 133 ft 0 kts 225°
2026-05-05 06:41 48.06913 -1.72726 133 ft 1 kts 225°
2026-05-05 06:41 48.06911 -1.72728 133 ft 0 kts 225°